Time,TemperatureF,DewpointF,PressureIn,WindDirection,WindDirectionDegrees,WindSpeedMPH,WindSpeedGustMPH,Humidity,HourlyPrecipIn,Conditions,Clouds,dailyrainin,SoftwareType,DateUTC
2013-07-27 00:01:00,68.9,61.8,29.86,SSW,210,2.0,6.0,78,0.00,,,0.00,Wunderground v.1.15,2013-07-27 04:01:00,
2013-07-27 00:04:00,68.6,61.5,29.86,SSW,212,2.0,6.0,78,0.00,,,0.00,Wunderground v.1.15,2013-07-27 04:04:00,
2013-07-27 00:06:00,68.4,62.0,29.86,SW,224,1.0,6.0,80,0.00,,,0.00,Wunderground v.1.15,2013-07-27 04:06:00,
2013-07-27 00:12:00,67.9,61.9,29.86,SSW,206,2.0,2.0,81,0.00,,,0.01,Wunderground v.1.15,2013-07-27 04:12:00,
2013-07-27 00:18:00,67.6,62.3,29.86,SW,219,1.0,2.0,83,0.00,,,0.01,Wunderground v.1.15,2013-07-27 04:18:00,
2013-07-27 00:24:00,67.3,62.0,29.86,SW,219,0.0,1.0,83,0.00,,,0.01,Wunderground v.1.15,2013-07-27 04:24:00,
2013-07-27 00:31:00,67.1,62.4,29.86,SW,219,0.0,0.0,85,0.00,,,0.01,Wunderground v.1.15,2013-07-27 04:31:00,
2013-07-27 00:38:00,66.9,62.6,29.86,SSW,210,0.0,1.0,86,0.00,,,0.01,Wunderground v.1.15,2013-07-27 04:38:00,
2013-07-27 00:44:00,66.8,62.5,29.86,SSW,212,0.0,2.0,86,0.00,,,0.01,Wunderground v.1.15,2013-07-27 04:44:00,
2013-07-27 00:50:00,66.6,62.3,29.86,SSW,212,1.0,2.0,86,0.00,,,0.01,Wunderground v.1.15,2013-07-27 04:50:00,
2013-07-27 00:56:00,66.4,62.1,29.86,WSW,248,1.0,2.0,86,0.00,,,0.01,Wunderground v.1.15,2013-07-27 04:56:00,
2013-07-27 01:02:00,66.4,62.1,29.86,SW,230,0.0,11.0,86,0.00,,,0.01,Wunderground v.1.15,2013-07-27 05:02:00,
2013-07-27 01:08:00,66.4,61.8,29.86,South,179,0.0,11.0,85,0.00,,,0.01,Wunderground v.1.15,2013-07-27 05:08:00,
2013-07-27 01:14:00,66.3,61.7,29.86,South,181,1.0,1.0,85,0.00,,,0.01,Wunderground v.1.15,2013-07-27 05:14:00,
2013-07-27 01:19:00,66.0,61.4,29.86,South,181,0.0,1.0,85,0.00,,,0.01,Wunderground v.1.15,2013-07-27 05:19:00,
2013-07-27 01:26:00,65.6,60.6,29.86,South,179,1.0,2.0,84,0.00,,,0.01,Wunderground v.1.15,2013-07-27 05:26:00,
2013-07-27 01:32:00,65.5,60.2,29.86,South,178,0.0,0.0,83,0.00,,,0.01,Wunderground v.1.15,2013-07-27 05:32:00,
2013-07-27 01:38:00,65.5,60.5,29.85,South,178,0.0,1.0,84,0.00,,,0.01,Wunderground v.1.15,2013-07-27 05:38:00,
2013-07-27 01:44:00,65.5,60.9,29.85,South,179,0.0,2.0,85,0.00,,,0.01,Wunderground v.1.15,2013-07-27 05:44:00,
2013-07-27 01:50:00,65.5,60.2,29.85,South,179,0.0,3.0,83,0.00,,,0.01,Wunderground v.1.15,2013-07-27 05:50:00,
2013-07-27 01:56:00,65.5,59.9,29.85,South,181,1.0,1.0,82,0.00,,,0.01,Wunderground v.1.15,2013-07-27 05:56:00,
2013-07-27 02:02:00,65.6,60.0,29.85,South,181,0.0,6.0,82,0.00,,,0.01,Wunderground v.1.15,2013-07-27 06:02:00,
2013-07-27 02:08:00,65.5,59.9,29.84,South,181,0.0,6.0,82,0.00,,,0.01,Wunderground v.1.15,2013-07-27 06:08:00,
2013-07-27 02:13:00,65.5,59.5,29.84,South,184,2.0,5.0,81,0.00,,,0.01,Wunderground v.1.15,2013-07-27 06:13:00,
2013-07-27 02:19:00,65.5,59.9,29.83,South,178,2.0,5.0,82,0.00,,,0.01,Wunderground v.1.15,2013-07-27 06:19:00,
2013-07-27 02:26:00,65.5,60.5,29.83,SSW,195,2.0,3.0,84,0.00,,,0.01,Wunderground v.1.15,2013-07-27 06:26:00,
2013-07-27 02:32:00,65.5,61.2,29.83,South,174,2.0,2.0,86,0.00,,,0.01,Wunderground v.1.15,2013-07-27 06:32:00,
2013-07-27 02:38:00,65.5,61.2,29.83,SSW,209,2.0,4.0,86,0.00,,,0.01,Wunderground v.1.15,2013-07-27 06:38:00,
2013-07-27 02:43:00,65.5,61.5,29.83,SSW,205,2.0,5.0,87,0.00,,,0.01,Wunderground v.1.15,2013-07-27 06:43:00,
2013-07-27 02:50:00,65.3,61.7,29.84,SSW,205,2.0,8.0,88,0.00,,,0.01,Wunderground v.1.15,2013-07-27 06:50:00,
2013-07-27 02:56:00,65.0,62.0,29.84,SSW,210,2.0,3.0,90,0.00,,,0.02,Wunderground v.1.15,2013-07-27 06:56:00,
2013-07-27 03:02:00,64.7,62.0,29.84,SSW,200,2.0,2.0,91,0.08,,,0.03,Wunderground v.1.15,2013-07-27 07:02:00,
2013-07-27 03:08:00,64.5,62.4,29.83,SW,230,1.0,5.0,93,0.10,,,0.04,Wunderground v.1.15,2013-07-27 07:08:00,
2013-07-27 03:14:00,64.3,62.2,29.83,SSW,203,1.0,1.0,93,0.05,,,0.04,Wunderground v.1.15,2013-07-27 07:14:00,
2013-07-27 03:20:00,64.2,62.4,29.83,SSW,193,1.0,2.0,94,0.05,,,0.05,Wunderground v.1.15,2013-07-27 07:20:00,
2013-07-27 03:26:00,64.2,62.4,29.83,SSW,193,1.0,1.0,94,0.05,,,0.05,Wunderground v.1.15,2013-07-27 07:26:00,
2013-07-27 03:32:00,64.0,62.5,29.83,South,186,1.0,1.0,95,0.04,,,0.05,Wunderground v.1.15,2013-07-27 07:32:00,
2013-07-27 03:38:00,64.0,62.5,29.82,South,179,2.0,5.0,95,0.04,,,0.06,Wunderground v.1.15,2013-07-27 07:38:00,
2013-07-27 03:44:00,64.0,62.8,29.82,SSW,202,2.0,2.0,96,0.04,,,0.06,Wunderground v.1.15,2013-07-27 07:44:00,
2013-07-27 03:50:00,64.0,62.8,29.82,SSE,168,2.0,2.0,96,0.00,,,0.06,Wunderground v.1.15,2013-07-27 07:50:00,
2013-07-27 03:56:00,64.0,62.8,29.82,South,186,1.0,1.0,96,0.00,,,0.06,Wunderground v.1.15,2013-07-27 07:56:00,
2013-07-27 04:02:00,64.2,63.0,29.82,South,181,1.0,8.0,96,0.00,,,0.06,Wunderground v.1.15,2013-07-27 08:02:00,
2013-07-27 04:08:00,64.2,63.0,29.82,South,176,1.0,8.0,96,0.00,,,0.06,Wunderground v.1.15,2013-07-27 08:08:00,
2013-07-27 04:14:00,64.2,63.0,29.82,South,181,1.0,1.0,96,0.00,,,0.06,Wunderground v.1.15,2013-07-27 08:14:00,
2013-07-27 04:20:00,64.3,63.4,29.82,South,172,1.0,2.0,97,0.00,,,0.06,Wunderground v.1.15,2013-07-27 08:20:00,
2013-07-27 04:25:00,64.3,63.4,29.82,SW,217,1.0,2.0,97,0.00,,,0.07,Wunderground v.1.15,2013-07-27 08:25:00,
2013-07-27 04:32:00,64.3,63.4,29.82,SW,217,1.0,1.0,97,0.53,,,0.09,Wunderground v.1.15,2013-07-27 08:32:00,
2013-07-27 04:38:00,64.3,63.4,29.81,South,172,1.0,4.0,97,0.08,,,0.09,Wunderground v.1.15,2013-07-27 08:38:00,
2013-07-27 04:44:00,64.3,63.4,29.81,SW,217,1.0,2.0,97,0.06,,,0.10,Wunderground v.1.15,2013-07-27 08:44:00,
2013-07-27 04:50:00,64.3,63.4,29.81,SW,217,1.0,1.0,97,0.14,,,0.11,Wunderground v.1.15,2013-07-27 08:50:00,
2013-07-27 04:56:00,64.2,63.3,29.81,SSW,212,1.0,2.0,97,0.38,,,0.12,Wunderground v.1.15,2013-07-27 08:56:00,
2013-07-27 05:02:00,64.2,63.3,29.81,South,181,2.0,7.0,97,0.27,,,0.15,Wunderground v.1.15,2013-07-27 09:02:00,
2013-07-27 05:08:00,64.2,63.3,29.81,SSW,199,2.0,7.0,97,0.13,,,0.16,Wunderground v.1.15,2013-07-27 09:08:00,
2013-07-27 05:14:00,64.2,63.6,29.81,SSW,192,2.0,4.0,98,0.11,,,0.17,Wunderground v.1.15,2013-07-27 09:14:00,
2013-07-27 05:19:00,64.2,63.6,29.81,South,178,1.0,4.0,98,0.05,,,0.17,Wunderground v.1.15,2013-07-27 09:19:00,
2013-07-27 05:26:00,64.2,63.6,29.81,South,191,2.0,3.0,98,0.00,,,0.17,Wunderground v.1.15,2013-07-27 09:26:00,
2013-07-27 05:32:00,64.2,63.6,29.81,SSW,193,1.0,1.0,98,0.00,,,0.17,Wunderground v.1.15,2013-07-27 09:32:00,
2013-07-27 05:38:00,64.2,63.6,29.81,South,191,1.0,5.0,98,0.00,,,0.17,Wunderground v.1.15,2013-07-27 09:38:00,
2013-07-27 05:43:00,64.2,63.6,29.81,South,191,2.0,5.0,98,0.00,,,0.17,Wunderground v.1.15,2013-07-27 09:43:00,
2013-07-27 05:50:00,64.2,63.6,29.80,SSE,168,3.0,5.0,98,0.00,,,0.17,Wunderground v.1.15,2013-07-27 09:50:00,
2013-07-27 05:56:00,64.2,63.6,29.80,SSW,192,2.0,3.0,98,0.00,,,0.17,Wunderground v.1.15,2013-07-27 09:56:00,
2013-07-27 06:02:00,64.2,63.6,29.80,South,175,2.0,2.0,98,0.00,,,0.17,Wunderground v.1.15,2013-07-27 10:02:00,
2013-07-27 06:08:00,64.2,63.6,29.80,South,179,1.0,7.0,98,0.00,,,0.17,Wunderground v.1.15,2013-07-27 10:08:00,
2013-07-27 06:16:00,64.0,63.4,29.80,South,189,1.0,6.0,98,0.00,,,0.17,Wunderground v.1.15,2013-07-27 10:16:00,
2013-07-27 06:22:00,64.0,63.4,29.80,SSW,193,2.0,2.0,98,0.00,,,0.17,Wunderground v.1.15,2013-07-27 10:22:00,
2013-07-27 06:28:00,64.0,63.4,29.80,SSE,150,2.0,5.0,98,0.00,,,0.17,Wunderground v.1.15,2013-07-27 10:28:00,
2013-07-27 06:34:00,64.0,63.4,29.80,South,184,2.0,3.0,98,0.00,,,0.17,Wunderground v.1.15,2013-07-27 10:34:00,
2013-07-27 06:40:00,64.0,63.4,29.80,South,176,2.0,3.0,98,0.00,,,0.17,Wunderground v.1.15,2013-07-27 10:40:00,
2013-07-27 06:48:00,64.0,63.4,29.80,South,176,1.0,3.0,98,0.00,,,0.17,Wunderground v.1.15,2013-07-27 10:48:00,
2013-07-27 06:54:00,64.0,63.4,29.80,South,178,1.0,1.0,98,0.00,,,0.17,Wunderground v.1.15,2013-07-27 10:54:00,
2013-07-27 07:01:00,64.0,63.4,29.80,South,182,1.0,1.0,98,0.00,,,0.17,Wunderground v.1.15,2013-07-27 11:01:00,
2013-07-27 07:08:00,64.2,63.6,29.80,South,178,2.0,4.0,98,0.00,,,0.17,Wunderground v.1.15,2013-07-27 11:08:00,
2013-07-27 07:14:00,64.2,63.6,29.80,SSW,200,1.0,2.0,98,0.00,,,0.17,Wunderground v.1.15,2013-07-27 11:14:00,
2013-07-27 07:20:00,64.2,63.6,29.81,South,189,1.0,2.0,98,0.00,,,0.17,Wunderground v.1.15,2013-07-27 11:20:00,
2013-07-27 07:25:00,64.3,63.7,29.81,SSW,195,1.0,2.0,98,0.00,,,0.17,Wunderground v.1.15,2013-07-27 11:25:00,
2013-07-27 07:32:00,64.3,63.7,29.81,SW,230,2.0,2.0,98,0.00,,,0.17,Wunderground v.1.15,2013-07-27 11:32:00,
2013-07-27 07:38:00,64.5,63.9,29.80,SW,220,1.0,2.0,98,0.00,,,0.17,Wunderground v.1.15,2013-07-27 11:38:00,
2013-07-27 07:44:00,64.5,63.9,29.80,SSW,193,1.0,1.0,98,0.00,,,0.18,Wunderground v.1.15,2013-07-27 11:44:00,
2013-07-27 07:50:00,64.5,63.9,29.80,SSW,193,0.0,1.0,98,0.00,,,0.18,Wunderground v.1.15,2013-07-27 11:50:00,
2013-07-27 07:56:00,64.5,63.9,29.80,SSW,198,1.0,3.0,98,0.00,,,0.18,Wunderground v.1.15,2013-07-27 11:56:00,
2013-07-27 08:01:00,64.7,64.1,29.80,South,182,1.0,1.0,98,0.00,,,0.18,Wunderground v.1.15,2013-07-27 12:01:00,
2013-07-27 08:08:00,64.7,64.1,29.80,South,184,0.0,8.0,98,0.00,,,0.18,Wunderground v.1.15,2013-07-27 12:08:00,
2013-07-27 08:14:00,64.8,64.2,29.80,South,184,0.0,0.0,98,0.00,,,0.18,Wunderground v.1.15,2013-07-27 12:14:00,
2013-07-27 08:20:00,64.8,64.2,29.80,SSW,195,0.0,2.0,98,0.00,,,0.18,Wunderground v.1.15,2013-07-27 12:20:00,
2013-07-27 08:26:00,64.8,64.2,29.80,South,182,1.0,1.0,98,0.00,,,0.18,Wunderground v.1.15,2013-07-27 12:26:00,
2013-07-27 08:32:00,64.8,64.2,29.80,South,181,1.0,2.0,98,0.00,,,0.18,Wunderground v.1.15,2013-07-27 12:32:00,
2013-07-27 08:38:00,64.8,64.2,29.80,South,189,1.0,2.0,98,0.00,,,0.18,Wunderground v.1.15,2013-07-27 12:38:00,
2013-07-27 08:44:00,64.8,64.2,29.80,SSW,213,1.0,1.0,98,0.00,,,0.18,Wunderground v.1.15,2013-07-27 12:44:00,
2013-07-27 08:49:00,64.8,64.2,29.80,SSW,196,2.0,3.0,98,0.00,,,0.18,Wunderground v.1.15,2013-07-27 12:49:00,
2013-07-27 08:56:00,65.0,64.4,29.80,SSW,198,1.0,3.0,98,0.00,,,0.18,Wunderground v.1.15,2013-07-27 12:56:00,
2013-07-27 09:02:00,65.0,64.1,29.80,SSW,195,1.0,1.0,97,0.00,,,0.18,Wunderground v.1.15,2013-07-27 13:02:00,
2013-07-27 09:08:00,65.0,64.1,29.80,South,189,2.0,7.0,97,0.00,,,0.18,Wunderground v.1.15,2013-07-27 13:08:00,
2013-07-27 09:16:00,65.0,64.1,29.80,SW,232,1.0,1.0,97,0.00,,,0.19,Wunderground v.1.15,2013-07-27 13:16:00,
2013-07-27 09:22:00,65.0,64.1,29.80,SW,230,1.0,1.0,97,0.09,,,0.20,Wunderground v.1.15,2013-07-27 13:22:00,
2013-07-27 09:28:00,65.0,64.1,29.80,SSW,192,1.0,3.0,97,0.15,,,0.22,Wunderground v.1.15,2013-07-27 13:28:00,
2013-07-27 09:34:00,65.0,64.1,29.80,SSW,203,2.0,3.0,97,0.06,,,0.22,Wunderground v.1.15,2013-07-27 13:34:00,
2013-07-27 09:39:00,65.2,64.3,29.80,SSW,208,1.0,3.0,97,0.04,,,0.22,Wunderground v.1.15,2013-07-27 13:39:00,
2013-07-27 09:48:00,65.3,64.7,29.79,South,186,1.0,2.0,98,0.00,,,0.22,Wunderground v.1.15,2013-07-27 13:48:00,
2013-07-27 09:54:00,65.3,64.7,29.79,SSW,208,1.0,1.0,98,0.00,,,0.22,Wunderground v.1.15,2013-07-27 13:54:00,
2013-07-27 10:02:00,65.5,64.9,29.79,South,188,2.0,2.0,98,0.00,,,0.22,Wunderground v.1.15,2013-07-27 14:02:00,
2013-07-27 10:08:00,65.5,64.9,29.79,SSW,212,2.0,7.0,98,0.00,,,0.22,Wunderground v.1.15,2013-07-27 14:08:00,
2013-07-27 10:13:00,65.5,64.9,29.79,SSW,198,3.0,3.0,98,0.00,,,0.22,Wunderground v.1.15,2013-07-27 14:13:00,
2013-07-27 10:20:00,65.5,64.9,29.79,South,169,3.0,4.0,98,0.00,,,0.22,Wunderground v.1.15,2013-07-27 14:20:00,
2013-07-27 10:26:00,65.8,65.2,29.79,South,172,2.0,4.0,98,0.00,,,0.22,Wunderground v.1.15,2013-07-27 14:26:00,
2013-07-27 10:32:00,66.0,65.4,29.79,South,186,2.0,2.0,98,0.00,,,0.22,Wunderground v.1.15,2013-07-27 14:32:00,
2013-07-27 10:38:00,66.0,65.4,29.79,South,184,2.0,2.0,98,0.00,,,0.22,Wunderground v.1.15,2013-07-27 14:38:00,
2013-07-27 10:44:00,66.0,65.4,29.79,SW,215,2.0,2.0,98,0.00,,,0.22,Wunderground v.1.15,2013-07-27 14:44:00,
2013-07-27 10:49:00,66.0,65.4,29.78,SSW,198,2.0,2.0,98,0.00,,,0.22,Wunderground v.1.15,2013-07-27 14:49:00,
2013-07-27 10:56:00,66.0,65.1,29.78,WSW,246,2.0,2.0,97,0.00,,,0.22,Wunderground v.1.15,2013-07-27 14:56:00,
2013-07-27 11:02:00,66.1,64.9,29.78,West,263,2.0,2.0,96,0.00,,,0.22,Wunderground v.1.15,2013-07-27 15:02:00,
2013-07-27 11:08:00,66.1,64.9,29.78,SSW,195,2.0,8.0,96,0.00,,,0.22,Wunderground v.1.15,2013-07-27 15:08:00,
2013-07-27 11:14:00,66.1,64.9,29.78,SW,219,2.0,2.0,96,0.00,,,0.22,Wunderground v.1.15,2013-07-27 15:14:00,
2013-07-27 11:20:00,66.3,65.1,29.78,South,188,2.0,2.0,96,0.00,,,0.22,Wunderground v.1.15,2013-07-27 15:20:00,
2013-07-27 11:25:00,66.4,65.2,29.78,SW,227,1.0,2.0,96,0.00,,,0.22,Wunderground v.1.15,2013-07-27 15:25:00,
2013-07-27 11:32:00,66.6,65.4,29.78,SW,222,2.0,2.0,96,0.00,,,0.22,Wunderground v.1.15,2013-07-27 15:32:00,
2013-07-27 11:38:00,66.8,65.6,29.78,SSW,208,2.0,3.0,96,0.00,,,0.22,Wunderground v.1.15,2013-07-27 15:38:00,
2013-07-27 11:44:00,66.9,65.4,29.78,SSW,208,2.0,2.0,95,0.00,,,0.22,Wunderground v.1.15,2013-07-27 15:44:00,
2013-07-27 11:50:00,67.3,65.5,29.77,SSW,213,3.0,5.0,94,0.00,,,0.22,Wunderground v.1.15,2013-07-27 15:50:00,
2013-07-27 11:56:00,67.6,65.2,29.77,SSW,198,4.0,4.0,92,0.00,,,0.22,Wunderground v.1.15,2013-07-27 15:56:00,
2013-07-27 12:01:00,67.8,65.1,29.77,South,175,3.0,3.0,91,0.00,,,0.22,Wunderground v.1.15,2013-07-27 16:01:00,
2013-07-27 12:08:00,68.1,65.4,29.77,WSW,240,2.0,10.0,91,0.00,,,0.22,Wunderground v.1.15,2013-07-27 16:08:00,
2013-07-27 12:14:00,68.3,65.3,29.77,SSW,206,2.0,3.0,90,0.00,,,0.22,Wunderground v.1.15,2013-07-27 16:14:00,
2013-07-27 12:20:00,68.6,65.2,29.77,SW,217,3.0,7.0,89,0.00,,,0.22,Wunderground v.1.15,2013-07-27 16:20:00,
2013-07-27 12:25:00,69.3,65.9,29.77,South,186,3.0,5.0,89,0.00,,,0.22,Wunderground v.1.15,2013-07-27 16:25:00,
2013-07-27 12:32:00,70.3,65.9,29.77,SW,220,3.0,7.0,86,0.00,,,0.22,Wunderground v.1.15,2013-07-27 16:32:00,
2013-07-27 12:38:00,70.9,65.5,29.76,SSW,199,4.0,7.0,83,0.00,,,0.22,Wunderground v.1.15,2013-07-27 16:38:00,
2013-07-27 12:43:00,71.6,65.8,29.76,South,171,3.0,7.0,82,0.00,,,0.22,Wunderground v.1.15,2013-07-27 16:43:00,
2013-07-27 12:50:00,71.8,63.8,29.76,South,174,4.0,7.0,76,0.00,,,0.22,Wunderground v.1.15,2013-07-27 16:50:00,
2013-07-27 12:56:00,72.3,65.1,29.76,South,191,4.0,7.0,78,0.00,,,0.22,Wunderground v.1.15,2013-07-27 16:56:00,
2013-07-27 13:02:00,72.8,65.2,29.76,South,178,3.0,10.0,77,0.00,,,0.22,Wunderground v.1.15,2013-07-27 17:02:00,
2013-07-27 13:08:00,73.5,65.5,29.75,SSW,203,4.0,10.0,76,0.00,,,0.22,Wunderground v.1.15,2013-07-27 17:08:00,
2013-07-27 13:16:00,74.2,65.0,29.75,SSW,208,3.0,5.0,73,0.00,,,0.22,Wunderground v.1.15,2013-07-27 17:16:00,
2013-07-27 13:22:00,74.2,63.8,29.74,SSW,199,3.0,3.0,70,0.00,,,0.22,Wunderground v.1.15,2013-07-27 17:22:00,
2013-07-27 13:28:00,74.2,63.4,29.74,SW,219,3.0,5.0,69,0.00,,,0.22,Wunderground v.1.15,2013-07-27 17:28:00,
2013-07-27 13:33:00,74.2,63.8,29.74,SW,222,3.0,3.0,70,0.00,,,0.22,Wunderground v.1.15,2013-07-27 17:33:00,
2013-07-27 13:40:00,74.2,63.8,29.74,SSW,210,2.0,7.0,70,0.00,,,0.22,Wunderground v.1.15,2013-07-27 17:40:00,
2013-07-27 13:46:00,73.9,63.5,29.74,West,274,1.0,2.0,70,0.00,,,0.22,Wunderground v.1.15,2013-07-27 17:46:00,
2013-07-27 13:52:00,73.9,62.7,29.74,SW,230,1.0,5.0,68,0.00,,,0.22,Wunderground v.1.15,2013-07-27 17:52:00,
2013-07-27 13:58:00,74.9,62.8,29.74,SW,217,4.0,7.0,66,0.00,,,0.22,Wunderground v.1.15,2013-07-27 17:58:00,
2013-07-27 14:04:00,76.0,62.0,29.74,North,350,3.0,13.0,62,0.00,,,0.22,Wunderground v.1.15,2013-07-27 18:04:00,
2013-07-27 14:09:00,76.3,61.9,29.74,West,275,2.0,13.0,61,0.00,,,0.22,Wunderground v.1.15,2013-07-27 18:09:00,
2013-07-27 14:18:00,76.5,59.1,29.74,WSW,246,3.0,6.0,55,0.00,,,0.22,Wunderground v.1.15,2013-07-27 18:18:00,
2013-07-27 14:24:00,77.4,60.5,29.74,West,281,2.0,2.0,56,0.00,,,0.22,Wunderground v.1.15,2013-07-27 18:24:00,
2013-07-27 14:32:00,77.4,58.9,29.74,NE,34,2.0,2.0,53,0.00,,,0.22,Wunderground v.1.15,2013-07-27 18:32:00,
2013-07-27 14:38:00,77.9,58.3,29.73,West,272,2.0,5.0,51,0.00,,,0.22,Wunderground v.1.15,2013-07-27 18:38:00,
2013-07-27 14:44:00,78.1,58.5,29.73,SW,232,2.0,3.0,51,0.00,,,0.22,Wunderground v.1.15,2013-07-27 18:44:00,
2013-07-27 14:49:00,78.1,57.4,29.74,West,268,2.0,3.0,49,0.00,,,0.22,Wunderground v.1.15,2013-07-27 18:49:00,
2013-07-27 14:56:00,78.6,58.4,29.74,South,186,2.0,3.0,50,0.00,,,0.22,Wunderground v.1.15,2013-07-27 18:56:00,
2013-07-27 15:02:00,78.8,55.7,29.74,SSW,208,3.0,3.0,45,0.00,,,0.22,Wunderground v.1.15,2013-07-27 19:02:00,
2013-07-27 15:08:00,78.6,56.7,29.73,WSW,248,3.0,14.0,47,0.00,,,0.22,Wunderground v.1.15,2013-07-27 19:08:00,
2013-07-27 15:14:00,78.6,57.3,29.73,NW,325,2.0,2.0,48,0.00,,,0.22,Wunderground v.1.15,2013-07-27 19:14:00,
2013-07-27 15:19:00,78.6,58.4,29.73,West,270,2.0,2.0,50,0.00,,,0.22,Wunderground v.1.15,2013-07-27 19:19:00,
2013-07-27 15:26:00,78.3,57.6,29.73,South,172,2.0,3.0,49,0.00,,,0.22,Wunderground v.1.15,2013-07-27 19:26:00,
2013-07-27 15:31:00,78.1,56.8,29.73,SSW,200,3.0,3.0,48,0.00,,,0.22,Wunderground v.1.15,2013-07-27 19:31:00,
2013-07-27 15:38:00,78.5,58.3,29.73,SW,216,2.0,3.0,50,0.00,,,0.22,Wunderground v.1.15,2013-07-27 19:38:00,
2013-07-27 15:43:00,78.6,55.5,29.73,NNW,347,2.0,5.0,45,0.00,,,0.22,Wunderground v.1.15,2013-07-27 19:43:00,
2013-07-27 15:50:00,78.8,58.0,29.73,SSW,205,2.0,5.0,49,0.00,,,0.22,Wunderground v.1.15,2013-07-27 19:50:00,
2013-07-27 15:56:00,78.5,57.2,29.73,SW,229,2.0,2.0,48,0.00,,,0.22,Wunderground v.1.15,2013-07-27 19:56:00,
2013-07-27 16:02:00,78.3,57.6,29.73,WSW,254,2.0,12.0,49,0.00,,,0.22,Wunderground v.1.15,2013-07-27 20:02:00,
2013-07-27 16:08:00,78.6,57.3,29.73,WSW,243,3.0,12.0,48,0.00,,,0.22,Wunderground v.1.15,2013-07-27 20:08:00,
2013-07-27 16:14:00,78.5,54.8,29.73,South,191,4.0,11.0,44,0.00,,,0.22,Wunderground v.1.15,2013-07-27 20:14:00,
2013-07-27 16:20:00,78.1,54.4,29.72,NW,323,5.0,11.0,44,0.00,,,0.22,Wunderground v.1.15,2013-07-27 20:20:00,
2013-07-27 16:26:00,78.6,55.5,29.72,West,261,3.0,5.0,45,0.00,,,0.22,Wunderground v.1.15,2013-07-27 20:26:00,
2013-07-27 16:32:00,78.6,56.1,29.72,South,182,3.0,3.0,46,0.00,,,0.22,Wunderground v.1.15,2013-07-27 20:32:00,
2013-07-27 16:38:00,79.2,55.4,29.72,South,175,2.0,7.0,44,0.00,,,0.22,Wunderground v.1.15,2013-07-27 20:38:00,
2013-07-27 16:44:00,79.4,55.6,29.72,SSW,192,2.0,2.0,44,0.00,,,0.22,Wunderground v.1.15,2013-07-27 20:44:00,
2013-07-27 16:50:00,79.6,55.8,29.72,South,175,2.0,4.0,44,0.00,,,0.22,Wunderground v.1.15,2013-07-27 20:50:00,
2013-07-27 16:55:00,79.6,56.4,29.72,WNW,287,2.0,6.0,45,0.00,,,0.22,Wunderground v.1.15,2013-07-27 20:55:00,
2013-07-27 17:02:00,79.4,54.3,29.72,WNW,302,2.0,11.0,42,0.00,,,0.22,Wunderground v.1.15,2013-07-27 21:02:00,
2013-07-27 17:08:00,79.2,52.1,29.72,SW,222,2.0,11.0,39,0.00,,,0.22,Wunderground v.1.15,2013-07-27 21:08:00,
2013-07-27 17:14:00,78.8,54.4,29.72,SSE,164,2.0,5.0,43,0.00,,,0.22,Wunderground v.1.15,2013-07-27 21:14:00,
2013-07-27 17:19:00,78.5,54.8,29.72,South,191,2.0,5.0,44,0.00,,,0.22,Wunderground v.1.15,2013-07-27 21:19:00,
2013-07-27 17:26:00,78.6,54.2,29.72,SSW,198,2.0,6.0,43,0.00,,,0.22,Wunderground v.1.15,2013-07-27 21:26:00,
2013-07-27 17:32:00,78.6,55.5,29.72,NW,304,2.0,2.0,45,0.00,,,0.22,Wunderground v.1.15,2013-07-27 21:32:00,
2013-07-27 17:38:00,78.3,55.2,29.72,West,280,1.0,2.0,45,0.00,,,0.22,Wunderground v.1.15,2013-07-27 21:38:00,
2013-07-27 17:43:00,78.6,56.1,29.72,West,280,1.0,1.0,46,0.00,,,0.22,Wunderground v.1.15,2013-07-27 21:43:00,
2013-07-27 17:50:00,77.7,56.4,29.73,West,270,2.0,2.0,48,0.00,,,0.22,Wunderground v.1.15,2013-07-27 21:50:00,
2013-07-27 17:56:00,77.0,55.8,29.73,SSW,208,2.0,3.0,48,0.00,,,0.22,Wunderground v.1.15,2013-07-27 21:56:00,
2013-07-27 18:02:00,77.0,55.2,29.73,NW,312,1.0,13.0,47,0.00,,,0.22,Wunderground v.1.15,2013-07-27 22:02:00,
2013-07-27 18:08:00,77.4,55.6,29.73,West,274,2.0,13.0,47,0.00,,,0.22,Wunderground v.1.15,2013-07-27 22:08:00,
2013-07-27 18:14:00,77.7,55.3,29.73,South,176,2.0,5.0,46,0.00,,,0.22,Wunderground v.1.15,2013-07-27 22:14:00,
2013-07-27 18:20:00,77.2,55.4,29.73,NW,306,2.0,5.0,47,0.00,,,0.22,Wunderground v.1.15,2013-07-27 22:20:00,
2013-07-27 18:26:00,77.0,55.2,29.73,WNW,287,2.0,2.0,47,0.00,,,0.22,Wunderground v.1.15,2013-07-27 22:26:00,
2013-07-27 18:31:00,77.4,55.6,29.73,West,274,2.0,2.0,47,0.00,,,0.22,Wunderground v.1.15,2013-07-27 22:31:00,
2013-07-27 18:38:00,77.0,54.6,29.73,WNW,284,2.0,7.0,46,0.00,,,0.22,Wunderground v.1.15,2013-07-27 22:38:00,
2013-07-27 18:44:00,76.3,56.3,29.73,South,175,1.0,2.0,50,0.00,,,0.22,Wunderground v.1.15,2013-07-27 22:44:00,
2013-07-27 18:50:00,76.3,56.3,29.74,SSW,205,1.0,3.0,50,0.00,,,0.22,Wunderground v.1.15,2013-07-27 22:50:00,
2013-07-27 18:56:00,76.3,56.3,29.74,WSW,239,2.0,3.0,50,0.00,,,0.22,Wunderground v.1.15,2013-07-27 22:56:00,
2013-07-27 19:02:00,75.8,55.8,29.74,NW,312,1.0,10.0,50,0.00,,,0.22,Wunderground v.1.15,2013-07-27 23:02:00,
2013-07-27 19:08:00,75.4,56.0,29.74,West,267,1.0,10.0,51,0.00,,,0.22,Wunderground v.1.15,2013-07-27 23:08:00,
2013-07-27 19:14:00,74.7,56.4,29.74,West,274,1.0,1.0,53,0.00,,,0.22,Wunderground v.1.15,2013-07-27 23:14:00,
2013-07-27 19:20:00,73.9,55.7,29.74,WSW,253,0.0,1.0,53,0.00,,,0.22,Wunderground v.1.15,2013-07-27 23:20:00,
2013-07-27 19:26:00,73.2,56.1,29.74,WSW,253,0.0,0.0,55,0.00,,,0.22,Wunderground v.1.15,2013-07-27 23:26:00,
2013-07-27 19:32:00,72.7,56.1,29.74,West,260,0.0,0.0,56,0.00,,,0.22,Wunderground v.1.15,2013-07-27 23:32:00,
2013-07-27 19:38:00,72.3,55.2,29.75,NW,319,1.0,2.0,55,0.00,,,0.22,Wunderground v.1.15,2013-07-27 23:38:00,
2013-07-27 19:44:00,72.1,54.0,29.75,West,275,1.0,1.0,53,0.00,,,0.22,Wunderground v.1.15,2013-07-27 23:44:00,
2013-07-27 19:50:00,71.8,57.2,29.76,WNW,295,1.0,2.0,60,0.00,,,0.22,Wunderground v.1.15,2013-07-27 23:50:00,
2013-07-27 19:56:00,70.9,58.1,29.76,WNW,298,1.0,2.0,64,0.00,,,0.22,Wunderground v.1.15,2013-07-27 23:56:00,
2013-07-27 20:02:00,70.4,58.5,29.76,WNW,296,1.0,10.0,66,0.00,,,0.22,Wunderground v.1.15,2013-07-28 00:02:00,
2013-07-27 20:08:00,69.8,58.8,29.77,WNW,296,1.0,10.0,68,0.00,,,0.22,Wunderground v.1.15,2013-07-28 00:08:00,
2013-07-27 20:14:00,69.4,58.8,29.77,West,270,0.0,2.0,69,0.00,,,0.22,Wunderground v.1.15,2013-07-28 00:14:00,
2013-07-27 20:20:00,68.8,57.4,29.78,WNW,295,1.0,2.0,67,0.00,,,0.22,Wunderground v.1.15,2013-07-28 00:20:00,
2013-07-27 20:26:00,68.4,57.0,29.78,WNW,295,1.0,2.0,67,0.00,,,0.22,Wunderground v.1.15,2013-07-28 00:26:00,
2013-07-27 20:32:00,68.1,56.7,29.78,NW,326,1.0,6.0,67,0.00,,,0.22,Wunderground v.1.15,2013-07-28 00:32:00,
2013-07-27 20:38:00,67.8,56.0,29.78,WNW,294,2.0,6.0,66,0.00,,,0.22,Wunderground v.1.15,2013-07-28 00:38:00,
2013-07-27 20:44:00,67.1,55.4,29.78,NNW,329,1.0,1.0,66,0.00,,,0.22,Wunderground v.1.15,2013-07-28 00:44:00,
2013-07-27 20:50:00,66.4,55.5,29.79,NW,326,1.0,3.0,68,0.00,,,0.22,Wunderground v.1.15,2013-07-28 00:50:00,
2013-07-27 20:56:00,66.0,55.1,29.79,NW,325,1.0,3.0,68,0.00,,,0.22,Wunderground v.1.15,2013-07-28 00:56:00,
2013-07-27 21:02:00,65.3,54.9,29.79,NW,326,1.0,6.0,69,0.00,,,0.22,Wunderground v.1.15,2013-07-28 01:02:00,
2013-07-27 21:08:00,65.0,54.6,29.80,NW,325,1.0,6.0,69,0.00,,,0.22,Wunderground v.1.15,2013-07-28 01:08:00,
2013-07-27 21:13:00,64.7,54.3,29.80,NW,325,0.0,1.0,69,0.00,,,0.22,Wunderground v.1.15,2013-07-28 01:13:00,
2013-07-27 21:20:00,64.2,54.6,29.81,WNW,289,0.0,1.0,71,0.00,,,0.22,Wunderground v.1.15,2013-07-28 01:20:00,
2013-07-27 21:25:00,63.9,54.3,29.81,WNW,284,0.0,1.0,71,0.00,,,0.22,Wunderground v.1.15,2013-07-28 01:25:00,
2013-07-27 21:32:00,63.5,54.3,29.81,WNW,284,0.0,0.0,72,0.00,,,0.22,Wunderground v.1.15,2013-07-28 01:32:00,
2013-07-27 21:38:00,63.2,54.4,29.81,WNW,284,0.0,1.0,73,0.00,,,0.22,Wunderground v.1.15,2013-07-28 01:38:00,
2013-07-27 21:44:00,62.9,54.5,29.81,WNW,284,0.0,0.0,74,0.00,,,0.22,Wunderground v.1.15,2013-07-28 01:44:00,
2013-07-27 21:50:00,62.6,54.2,29.82,WNW,285,0.0,0.0,74,0.00,,,0.22,Wunderground v.1.15,2013-07-28 01:50:00,
2013-07-27 21:56:00,62.4,54.4,29.82,WNW,285,0.0,0.0,75,0.00,,,0.22,Wunderground v.1.15,2013-07-28 01:56:00,
2013-07-27 22:02:00,62.1,54.4,29.82,WNW,285,0.0,8.0,76,0.00,,,0.22,Wunderground v.1.15,2013-07-28 02:02:00,
2013-07-27 22:08:00,61.8,54.5,29.82,WNW,285,0.0,8.0,77,0.00,,,0.22,Wunderground v.1.15,2013-07-28 02:08:00,
2013-07-27 22:14:00,61.6,54.7,29.82,WNW,284,0.0,0.0,78,0.00,,,0.22,Wunderground v.1.15,2013-07-28 02:14:00,
2013-07-27 22:19:00,61.3,54.7,29.83,WNW,285,0.0,0.0,79,0.00,,,0.22,Wunderground v.1.15,2013-07-28 02:19:00,
2013-07-27 22:26:00,61.2,55.0,29.83,WNW,284,0.0,0.0,80,0.00,,,0.22,Wunderground v.1.15,2013-07-28 02:26:00,
2013-07-27 22:32:00,60.9,55.0,29.83,WNW,284,0.0,0.0,81,0.00,,,0.22,Wunderground v.1.15,2013-07-28 02:32:00,
2013-07-27 22:38:00,60.7,55.2,29.84,WNW,285,0.0,0.0,82,0.00,,,0.22,Wunderground v.1.15,2013-07-28 02:38:00,
2013-07-27 22:44:00,60.4,54.9,29.84,WNW,284,0.0,0.0,82,0.00,,,0.22,Wunderground v.1.15,2013-07-28 02:44:00,
2013-07-27 22:50:00,60.4,54.9,29.84,WNW,284,0.0,0.0,82,0.00,,,0.22,Wunderground v.1.15,2013-07-28 02:50:00,
2013-07-27 22:55:00,60.2,54.3,29.84,WNW,284,0.0,0.0,81,0.00,,,0.22,Wunderground v.1.15,2013-07-28 02:55:00,
2013-07-27 23:02:00,60.2,54.7,29.84,WNW,285,0.0,5.0,82,0.00,,,0.22,Wunderground v.1.15,2013-07-28 03:02:00,
2013-07-27 23:08:00,60.1,54.2,29.84,WNW,285,0.0,5.0,81,0.00,,,0.22,Wunderground v.1.15,2013-07-28 03:08:00,
2013-07-27 23:14:00,59.9,54.1,29.84,WNW,285,0.0,0.0,81,0.00,,,0.22,Wunderground v.1.15,2013-07-28 03:14:00,
2013-07-27 23:20:00,59.9,54.1,29.84,WNW,284,0.0,0.0,81,0.00,,,0.22,Wunderground v.1.15,2013-07-28 03:20:00,
2013-07-27 23:26:00,59.8,54.3,29.84,WNW,285,0.0,0.0,82,0.00,,,0.22,Wunderground v.1.15,2013-07-28 03:26:00,
2013-07-27 23:32:00,59.6,54.1,29.84,WNW,284,0.0,0.0,82,0.00,,,0.22,Wunderground v.1.15,2013-07-28 03:32:00,
2013-07-27 23:38:00,59.6,54.1,29.84,WNW,284,0.0,0.0,82,0.00,,,0.22,Wunderground v.1.15,2013-07-28 03:38:00,
2013-07-27 23:44:00,59.6,54.1,29.84,WNW,285,0.0,0.0,82,0.00,,,0.22,Wunderground v.1.15,2013-07-28 03:44:00,
2013-07-27 23:50:00,59.6,53.8,29.84,WNW,285,0.0,0.0,81,0.00,,,0.22,Wunderground v.1.15,2013-07-28 03:50:00,
2013-07-27 23:56:00,59.6,53.8,29.84,WNW,284,0.0,0.0,81,0.00,,,0.22,Wunderground v.1.15,2013-07-28 03:56:00,